period_start,C,m1,H,J0,J1,J2,J3,J4,J5,JA,JB,JC,JD,JJ,JK,JN,#
2017-12-19 00:01:03,0.06,6.98,0.00,15.35,18.44,21.88,14.29,46.74,1019.02,2057.04,1533.48,1836.00,2109.97,599.66,612.87,51.69,0000 0000 0000 0000 000000
2017-12-19 00:06:05,0.08,6.99,0.00,15.35,18.44,21.91,14.43,46.90,1018.91,2057.05,1532.82,1835.74,2109.27,600.15,613.29,51.74,0000 0000 0000 0000 000000
2017-12-19 00:11:06,0.07,6.99,0.00,15.34,18.44,21.89,14.44,46.88,1018.95,2057.07,1532.07,1835.06,2108.96,600.01,613.24,51.79,0000 0000 0000 0000 000000
2017-12-19 00:16:07,0.09,6.99,0.00,15.36,18.44,21.87,14.34,46.93,1018.81,2057.06,1531.38,1834.85,2108.12,599.95,613.13,51.84,0000 0000 0000 0000 000000
2017-12-19 00:21:09,0.09,7.00,0.00,15.35,18.44,21.84,14.33,46.88,1018.77,2057.04,1530.72,1834.06,2107.75,600.13,613.03,51.89,0000 0000 0000 0000 000000
2017-12-19 00:26:10,0.05,7.00,0.00,15.32,18.44,21.87,14.34,46.82,1018.63,2057.06,1530.00,1833.94,2107.03,600.56,613.67,51.94,0000 0000 0000 0000 000000
2017-12-19 00:31:11,0.13,7.01,0.00,15.32,18.43,21.84,14.32,46.83,1018.61,2057.07,1529.17,1833.16,2106.63,599.93,613.10,51.99,0000 0000 0000 0000 000000
2017-12-19 00:36:12,0.07,7.01,0.00,15.33,18.42,21.82,14.37,46.90,1018.58,2057.11,1528.40,1832.97,2106.04,599.76,612.88,52.04,0000 0000 0000 0000 000000
2017-12-19 00:41:14,0.10,7.02,0.00,15.31,18.42,21.84,14.35,47.00,1018.57,2057.25,1527.94,1832.27,2105.62,599.90,613.03,52.09,0000 0000 0000 0000 000000
2017-12-19 00:46:15,0.06,7.02,0.00,15.31,18.42,21.83,14.36,47.10,1018.57,2057.30,1527.15,1832.01,2105.03,599.81,613.06,52.14,0000 0000 0000 0000 000000
2017-12-19 00:51:16,0.02,7.02,0.00,15.31,18.42,21.83,14.27,46.99,1018.51,2057.22,1526.81,1831.96,2104.83,599.93,612.99,52.19,0000 0000 0000 0000 000000
2017-12-19 00:56:18,0.13,7.03,0.00,15.27,18.41,21.84,14.23,47.00,1018.28,2057.42,1526.08,1831.53,2104.20,599.60,612.72,52.24,0000 0000 0000 0000 000000
2017-12-19 01:01:19,0.05,7.03,0.00,15.27,18.40,21.82,14.31,47.00,1018.12,2057.67,1525.84,1831.03,2104.01,599.87,612.82,52.29,0000 0000 0000 0000 000000
2017-12-19 01:06:21,0.07,7.04,0.00,15.28,18.39,21.78,14.34,47.08,1018.10,2057.86,1525.08,1831.00,2103.86,599.57,612.45,52.34,0000 0000 0000 0000 000000
2017-12-19 01:11:22,0.02,7.04,0.00,15.28,18.39,21.80,14.30,46.98,1018.08,2057.87,1524.99,1830.93,2103.09,599.92,612.93,52.39,0000 0000 0000 0000 000000
2017-12-19 01:16:23,0.10,7.04,0.00,15.27,18.39,21.82,14.32,47.00,1018.08,2057.84,1524.42,1830.31,2102.99,600.00,612.84,52.45,0000 0000 0000 0000 000000
2017-12-19 01:21:25,0.04,7.05,0.00,15.27,18.38,21.81,14.41,47.01,1018.08,2057.92,1524.00,1830.01,2102.55,600.16,612.88,52.50,0000 0000 0000 0000 000000
2017-12-19 01:26:26,0.05,7.05,0.00,15.27,18.37,21.81,14.39,47.01,1018.04,2057.94,1523.60,1829.99,2102.04,599.71,612.58,52.55,0000 0000 0000 0000 000000
2017-12-19 01:31:28,0.04,7.05,0.00,15.27,18.37,21.80,14.29,47.04,1017.88,2057.92,1523.02,1829.73,2101.99,599.94,612.74,52.60,0000 0000 0000 0000 000000
2017-12-19 01:36:29,0.08,7.05,0.00,15.26,18.37,21.79,14.37,47.08,1017.77,2057.98,1522.66,1829.11,2101.58,600.28,612.93,52.65,0000 0000 0000 0000 000000
2017-12-19 01:41:30,0.03,7.06,0.00,15.28,18.36,21.77,14.23,47.12,1017.70,2057.96,1522.02,1829.00,2101.04,599.71,612.49,52.70,0000 0000 0000 0000 000000
2017-12-19 01:46:31,0.03,7.06,0.00,15.27,18.35,21.77,14.33,47.13,1017.63,2057.98,1521.61,1828.97,2101.00,600.13,612.74,52.75,0000 0000 0000 0000 000000
2017-12-19 01:51:32,0.09,7.06,0.00,15.27,18.34,21.77,14.37,47.18,1017.61,2057.97,1521.03,1828.48,2100.62,599.82,612.40,52.80,0000 0000 0000 0000 000000
2017-12-19 01:56:33,0.03,7.07,0.00,15.26,18.34,21.76,14.33,47.22,1017.60,2057.99,1520.90,1828.04,2100.07,599.90,612.45,52.85,0000 0000 0000 0000 000000
2017-12-19 02:01:35,0.05,7.07,0.00,15.26,18.34,21.76,14.37,47.25,1017.60,2057.99,1520.16,1828.00,2100.00,599.96,612.70,52.90,0000 0000 0000 0000 000000
2017-12-19 02:06:36,0.01,7.07,0.00,15.27,18.34,21.80,14.39,47.19,1017.59,2057.99,1520.00,1827.97,2099.72,599.95,612.53,52.95,0000 0000 0000 0000 000000
2017-12-19 02:11:37,0.10,7.07,0.00,15.27,18.34,21.78,14.36,47.14,1017.59,2057.99,1519.50,1827.44,2099.05,600.06,612.66,53.00,0000 0000 0000 0000 000000
2017-12-19 02:16:38,0.02,7.08,0.00,15.27,18.34,21.77,14.39,47.16,1017.59,2057.99,1519.02,1827.01,2098.96,600.21,612.80,53.05,0000 0000 0000 0000 000000
2017-12-19 02:21:40,0.04,7.08,0.00,15.29,18.33,21.76,14.30,47.13,1017.58,2057.99,1518.82,1826.99,2098.25,599.88,612.46,53.10,0000 0000 0000 0000 000000
2017-12-19 02:26:41,0.04,7.08,0.00,15.27,18.32,21.77,14.43,47.23,1017.53,2057.99,1518.10,1826.95,2098.02,600.22,612.85,53.15,0000 0000 0000 0000 000000
2017-12-19 02:31:43,0.04,7.08,0.00,15.25,18.32,21.74,14.41,47.10,1017.43,2057.99,1517.98,1826.37,2097.92,600.05,612.45,53.20,0000 0000 0000 0000 000000
2017-12-19 02:36:44,0.07,7.09,0.00,15.27,18.32,21.73,14.43,47.08,1017.34,2057.99,1517.61,1826.03,2097.30,600.34,612.73,53.25,0000 0000 0000 0000 000000
2017-12-19 02:41:46,0.03,7.09,0.00,15.27,18.32,21.73,14.28,47.03,1017.23,2057.99,1517.04,1826.00,2097.00,600.19,612.49,53.30,0000 0000 0000 0000 000000
2017-12-19 02:46:47,0.02,7.09,0.00,15.26,18.32,21.72,14.43,47.20,1017.26,2057.99,1516.77,1825.98,2096.96,600.18,612.60,53.35,0000 0000 0000 0000 000000
2017-12-19 02:51:48,0.09,7.09,0.00,15.27,18.32,21.74,14.22,47.16,1017.13,2057.99,1516.04,1825.47,2096.63,599.61,611.94,53.41,0000 0000 0000 0000 000000
2017-12-19 02:56:49,0.07,7.10,0.00,15.25,18.32,21.72,14.45,47.36,1017.13,2057.99,1515.34,1825.02,2096.03,600.44,612.81,53.46,0000 0000 0000 0000 000000
2017-12-19 03:01:50,0.01,7.10,0.00,15.26,18.32,21.73,14.37,47.29,1017.12,2058.00,1514.99,1824.98,2095.96,600.25,612.74,53.51,0000 0000 0000 0000 000000
2017-12-19 03:06:52,0.12,7.10,0.00,15.23,18.32,21.68,14.25,47.35,1017.12,2058.00,1514.42,1824.48,2095.38,600.15,612.62,53.56,0000 0000 0000 0000 000000
2017-12-19 03:11:53,0.03,7.11,0.00,15.25,18.32,21.70,14.35,47.33,1017.11,2058.02,1514.00,1824.03,2095.00,600.00,612.41,53.61,0000 0000 0000 0000 000000
2017-12-19 03:16:54,0.03,7.11,0.00,15.24,18.32,21.74,14.32,47.21,1017.11,2058.03,1513.72,1824.00,2094.69,599.79,612.12,53.66,0000 0000 0000 0000 000000
2017-12-19 03:21:55,0.05,7.11,0.00,15.25,18.32,21.72,14.34,47.20,1017.11,2058.02,1513.02,1823.92,2094.07,599.96,612.38,53.71,0000 0000 0000 0000 000000
2017-12-19 03:26:56,0.05,7.11,0.00,15.24,18.32,21.73,14.30,47.31,1017.10,2058.03,1512.91,1823.26,2094.00,600.08,612.49,53.76,0000 0000 0000 0000 000000
2017-12-19 03:31:58,0.06,7.12,0.00,15.24,18.32,21.74,14.29,47.33,1017.09,2058.03,1512.19,1823.00,2093.78,600.08,612.35,53.81,0000 0000 0000 0000 000000
2017-12-19 03:36:59,0.02,7.12,0.00,15.25,18.32,21.69,14.38,47.48,1017.09,2058.04,1511.98,1823.00,2093.10,600.18,612.39,53.86,0000 0000 0000 0000 000000
2017-12-19 03:42:00,0.08,7.12,0.00,15.25,18.32,21.72,14.48,47.49,1017.09,2058.04,1511.30,1822.76,2092.99,600.54,612.88,53.91,0000 0000 0000 0000 000000
2017-12-19 03:47:01,0.04,7.13,0.00,15.25,18.32,21.74,14.32,47.52,1017.10,2058.04,1510.98,1822.06,2092.75,599.76,612.08,53.96,0000 0000 0000 0000 000000
2017-12-19 03:52:03,0.07,7.13,0.00,15.25,18.32,21.73,14.34,47.55,1017.09,2058.05,1510.26,1822.00,2092.11,599.88,612.22,54.01,0000 0000 0000 0000 000000
2017-12-19 03:57:04,0.01,7.13,0.00,15.27,18.32,21.69,14.38,47.55,1017.09,2058.06,1510.00,1821.98,2092.00,600.15,612.40,54.06,0000 0000 0000 0000 000000
2017-12-19 04:02:05,0.07,7.13,0.00,15.27,18.32,21.69,14.31,47.37,1017.10,2058.07,1509.98,1821.51,2091.33,599.83,612.18,54.11,0000 0000 0000 0000 000000
2017-12-19 04:07:07,0.03,7.14,0.00,15.28,18.32,21.73,14.35,47.31,1017.10,2058.03,1509.75,1821.05,2090.98,600.05,612.33,54.16,0000 0000 0000 0000 000000
2017-12-19 04:12:08,0.04,7.14,0.00,15.28,18.32,21.71,14.38,47.44,1017.09,2058.01,1509.06,1821.00,2090.84,600.06,612.46,54.21,0000 0000 0000 0000 000000
2017-12-19 04:17:09,0.03,7.14,0.00,15.28,18.32,21.72,14.37,47.44,1017.03,2058.01,1508.91,1820.99,2090.18,599.94,612.23,54.26,0000 0000 0000 0000 000000
2017-12-19 04:22:11,0.05,7.14,0.00,15.27,18.32,21.68,14.28,47.34,1016.89,2058.01,1508.54,1820.84,2089.99,600.13,612.48,54.32,0000 0000 0000 0000 000000
2017-12-19 04:27:12,0.07,7.15,0.00,15.26,18.32,21.70,14.23,47.29,1016.74,2058.01,1508.02,1820.12,2089.72,599.75,611.92,54.37,0000 0000 0000 0000 000000
2017-12-19 04:32:13,0.02,7.15,0.00,15.28,18.32,21.71,14.41,47.27,1016.64,2058.00,1507.94,1820.01,2089.04,600.28,612.22,54.42,0000 0000 0000 0000 000000
2017-12-19 04:37:15,0.05,7.15,0.00,15.26,18.32,21.72,14.29,47.38,1016.62,2058.00,1507.21,1820.00,2088.99,599.98,611.97,54.47,0000 0000 0000 0000 000000
2017-12-19 04:42:16,0.03,7.15,0.00,15.27,18.32,21.72,14.31,47.34,1016.62,2058.01,1506.91,1819.86,2088.73,599.99,612.07,54.52,0000 0000 0000 0000 000000
2017-12-19 04:47:17,0.11,7.16,0.00,15.28,18.32,21.72,14.36,47.33,1016.62,2058.02,1506.12,1819.14,2088.06,600.37,612.28,54.57,0000 0000 0000 0000 000000
2017-12-19 04:52:19,0.00,7.16,0.00,15.29,18.32,21.72,14.31,47.29,1016.61,2058.02,1505.99,1819.00,2088.00,599.98,611.88,54.62,0000 0000 0000 0000 000000
2017-12-19 04:57:20,0.06,7.16,0.00,15.30,18.32,21.73,14.27,47.24,1016.60,2058.01,1505.62,1819.00,2087.50,599.93,611.82,54.67,0000 0000 0000 0000 000000
2017-12-19 05:02:21,0.05,7.16,0.00,15.29,18.32,21.72,14.29,47.32,1016.61,2058.00,1505.01,1818.69,2087.05,599.72,611.59,54.72,0000 0000 0000 0000 000000
2017-12-19 05:07:23,0.06,7.17,0.00,15.29,18.32,21.72,14.34,47.40,1016.62,2058.02,1504.53,1818.10,2087.00,599.83,611.77,54.77,0000 0000 0000 0000 000000
2017-12-19 05:12:24,0.03,7.17,0.00,15.29,18.31,21.77,14.32,47.57,1016.62,2058.03,1504.04,1818.01,2086.97,600.15,612.15,54.82,0000 0000 0000 0000 000000
2017-12-19 05:17:26,0.03,7.17,0.00,15.29,18.31,21.74,14.35,47.56,1016.62,2058.05,1503.99,1817.99,2086.28,599.89,611.82,54.87,0000 0000 0000 0000 000000
2017-12-19 05:22:27,0.01,7.17,0.00,15.29,18.31,21.70,14.26,47.45,1016.61,2058.04,1503.85,1817.95,2085.99,599.88,611.89,54.92,0000 0000 0000 0000 000000
2017-12-19 05:27:28,0.09,7.18,0.00,15.28,18.31,21.74,14.31,47.41,1016.57,2058.02,1503.09,1817.29,2085.90,600.03,612.14,54.97,0000 0000 0000 0000 000000
2017-12-19 05:32:29,0.04,7.18,0.00,15.29,18.32,21.70,14.33,47.28,1016.55,2058.02,1502.88,1817.01,2085.16,599.89,611.72,55.02,0000 0000 0000 0000 000000
2017-12-19 05:37:31,0.05,7.18,0.00,15.29,18.32,21.72,14.37,47.38,1016.47,2058.01,1502.10,1816.99,2085.00,600.11,611.85,55.07,0000 0000 0000 0000 000000
2017-12-19 05:42:32,0.00,7.18,0.00,15.29,18.32,21.73,14.36,47.42,1016.32,2058.01,1501.97,1816.93,2084.89,599.85,611.59,55.13,0000 0000 0000 0000 000000
2017-12-19 05:47:33,0.07,7.18,0.00,15.29,18.32,21.73,14.27,47.31,1016.20,2058.02,1501.94,1816.49,2084.09,599.83,611.51,55.18,0000 0000 0000 0000 000000
2017-12-19 05:52:34,0.06,7.19,0.00,15.31,18.32,21.73,14.31,47.24,1016.17,2058.01,1501.17,1816.06,2084.00,599.93,611.64,55.23,0000 0000 0000 0000 000000
2017-12-19 05:57:36,0.00,7.19,0.00,15.32,18.32,21.73,14.34,47.29,1016.18,2058.01,1500.99,1816.00,2083.97,600.37,611.91,55.28,0000 0000 0000 0000 000000
2017-12-19 06:02:37,0.06,7.19,0.00,15.32,18.32,21.74,14.27,47.37,1016.23,2058.02,1500.41,1815.98,2083.76,599.85,611.53,55.33,0000 0000 0000 0000 000000
2017-12-19 06:07:38,0.03,7.19,0.00,15.31,18.32,21.73,14.38,47.43,1016.16,2058.03,1500.01,1815.90,2083.10,600.14,611.85,55.38,0000 0000 0000 0000 000000
2017-12-19 06:12:39,0.03,7.20,0.00,15.33,18.32,21.73,14.33,47.33,1016.23,2058.02,1500.00,1815.37,2083.00,599.83,611.42,55.43,0000 0000 0000 0000 000000
2017-12-19 06:17:41,0.06,7.20,0.00,15.34,18.32,21.75,14.28,47.34,1016.32,2058.04,1499.52,1815.02,2082.96,600.06,611.78,55.48,0000 0000 0000 0000 000000
2017-12-19 06:22:42,0.03,7.20,0.00,15.36,18.32,21.73,14.31,47.30,1016.29,2058.04,1499.02,1815.00,2082.35,599.84,611.56,55.53,0000 0000 0000 0000 000000
2017-12-19 06:27:43,0.04,7.20,0.00,15.35,18.33,21.74,14.40,47.42,1016.22,2058.01,1498.62,1814.96,2082.02,600.25,611.94,55.58,0000 0000 0000 0000 000000
2017-12-19 06:32:44,0.07,7.21,0.00,15.34,18.34,21.76,14.31,47.52,1016.21,2058.03,1498.03,1814.32,2081.97,600.07,611.66,55.63,0000 0000 0000 0000 000000
2017-12-19 06:37:45,0.03,7.21,0.00,15.35,18.34,21.77,14.30,47.51,1016.17,2058.04,1498.00,1814.03,2081.46,599.97,611.57,55.68,0000 0000 0000 0000 000000
2017-12-19 06:42:47,0.01,7.21,0.00,15.34,18.34,21.75,14.32,47.50,1016.16,2058.04,1497.95,1814.00,2081.01,600.06,611.65,55.73,0000 0000 0000 0000 000000
2017-12-19 06:47:48,0.04,7.21,0.00,15.36,18.34,21.78,14.23,47.44,1016.13,2058.03,1497.41,1813.98,2080.96,599.75,611.27,55.78,0000 0000 0000 0000 000000
2017-12-19 06:52:50,0.04,7.21,0.00,15.35,18.34,21.77,14.41,47.42,1016.14,2058.01,1497.01,1813.84,2080.44,600.33,611.88,55.83,0000 0000 0000 0000 000000
2017-12-19 06:57:51,0.04,7.22,0.00,15.35,18.35,21.77,14.33,47.54,1016.13,2058.01,1496.95,1813.27,2080.06,600.08,611.66,55.88,0000 0000 0000 0000 000000
2017-12-19 07:02:53,0.05,7.22,0.00,15.36,18.35,21.78,14.34,47.47,1016.14,2058.02,1496.29,1813.02,2080.00,600.05,611.77,55.93,0000 0000 0000 0000 000000
2017-12-19 07:07:54,0.01,7.22,0.00,15.39,18.36,21.78,14.31,47.52,1016.13,2058.03,1496.00,1813.00,2079.97,600.09,611.63,55.98,0000 0000 0000 0000 000000
2017-12-19 07:12:55,0.04,7.22,0.00,15.39,18.37,21.78,14.36,47.57,1016.13,2058.03,1495.93,1812.94,2079.34,600.12,611.61,56.03,0000 0000 0000 0000 000000
2017-12-19 07:17:56,0.09,7.23,0.00,15.37,18.37,21.81,14.39,47.56,1016.13,2058.01,1495.23,1812.45,2079.00,600.15,611.59,56.09,0000 0000 0000 0000 000000
2017-12-19 07:22:57,0.02,7.23,0.00,15.38,18.37,21.78,14.35,47.58,1016.13,2058.03,1495.01,1812.05,2078.97,600.01,611.52,56.14,0000 0000 0000 0000 000000
2017-12-19 07:27:58,0.03,7.23,0.00,15.41,18.37,21.77,14.28,47.67,1016.13,2058.01,1494.91,1812.00,2078.53,600.19,611.81,56.19,0000 0000 0000 0000 000000
2017-12-19 07:33:00,0.04,7.23,0.00,15.41,18.37,21.79,14.40,47.67,1016.13,2058.01,1494.37,1812.00,2078.05,600.16,611.65,56.24,0000 0000 0000 0000 000000
2017-12-19 07:38:01,0.01,7.23,0.00,15.40,18.37,21.79,14.39,47.48,1016.13,2058.00,1494.07,1811.97,2077.99,600.04,611.51,56.29,0000 0000 0000 0000 000000
2017-12-19 07:43:02,0.04,7.23,0.00,15.42,18.39,21.79,14.35,47.43,1016.13,2058.01,1493.98,1811.52,2077.87,600.04,611.43,56.34,0000 0000 0000 0000 000000
2017-12-19 07:48:04,0.09,7.24,0.00,15.41,18.39,21.81,14.29,47.38,1016.13,2058.02,1493.41,1811.03,2077.16,599.88,611.38,56.39,0000 0000 0000 0000 000000
2017-12-19 07:53:05,0.01,7.24,0.00,15.42,18.39,21.80,14.29,47.48,1016.13,2058.00,1493.00,1811.01,2076.99,600.13,611.54,56.44,0000 0000 0000 0000 000000
2017-12-19 07:58:06,0.01,7.24,0.00,15.40,18.39,21.80,14.31,47.42,1016.13,2058.00,1492.94,1810.96,2076.77,599.87,611.37,56.49,0000 0000 0000 0000 000000
2017-12-19 08:03:08,0.08,7.25,0.00,15.38,18.39,21.80,14.35,47.45,1016.13,2058.00,1492.30,1810.64,2076.11,600.16,611.70,56.54,0000 0000 0000 0000 000000
2017-12-19 08:08:09,0.04,7.25,0.00,15.39,18.39,21.80,14.28,47.28,1016.13,2058.00,1492.04,1810.09,2075.99,600.00,611.51,56.59,0000 0000 0000 0000 000000
2017-12-19 08:13:10,0.02,7.25,0.00,15.39,18.40,21.80,14.39,47.36,1016.13,2058.00,1491.97,1810.00,2075.71,600.27,611.80,56.64,0000 0000 0000 0000 000000
2017-12-19 08:18:11,0.07,7.25,0.00,15.39,18.40,21.81,14.29,47.32,1016.13,2057.99,1491.21,1809.96,2075.07,599.94,611.36,56.69,0000 0000 0000 0000 000000
2017-12-19 08:23:12,0.05,7.26,0.00,15.40,18.41,21.80,14.35,47.50,1016.13,2057.99,1490.98,1809.34,2074.99,600.15,611.55,56.74,0000 0000 0000 0000 000000
2017-12-19 08:28:14,0.04,7.26,0.00,15.40,18.42,21.83,14.28,47.31,1016.12,2057.99,1490.91,1809.02,2074.34,599.90,611.24,56.79,0000 0000 0000 0000 000000
2017-12-19 08:33:15,0.04,7.26,0.00,15.40,18.42,21.82,14.32,47.37,1016.11,2057.99,1490.28,1809.00,2074.02,600.05,611.54,56.84,0000 0000 0000 0000 000000
2017-12-19 08:38:16,0.01,7.26,0.00,15.41,18.42,21.84,14.30,47.35,1016.09,2057.99,1490.01,1808.98,2073.99,599.75,611.24,56.89,0000 0000 0000 0000 000000
2017-12-19 08:43:18,0.03,7.26,0.00,15.41,18.42,21.84,14.32,47.24,1016.03,2057.99,1489.98,1808.74,2073.63,599.91,611.21,56.94,0000 0000 0000 0000 000000
2017-12-19 08:48:19,0.10,7.27,0.00,15.42,18.42,21.83,14.34,47.36,1015.96,2057.98,1489.23,1808.14,2073.07,599.97,611.08,57.00,0000 0000 0000 0000 000000
2017-12-19 08:53:20,0.00,7.27,0.00,15.44,18.42,21.82,14.30,47.33,1015.96,2057.98,1488.99,1808.00,2073.00,600.08,611.37,57.05,0000 0000 0000 0000 000000
2017-12-19 08:58:22,0.01,7.27,0.00,15.44,18.42,21.85,14.30,47.26,1016.04,2057.99,1488.77,1807.99,2072.95,600.11,611.46,57.10,0000 0000 0000 0000 000000
2017-12-19 09:03:23,0.07,7.27,0.00,15.44,18.42,21.84,14.30,47.31,1015.94,2057.98,1488.25,1807.91,2072.36,599.83,611.12,57.15,0000 0000 0000 0000 000000
2017-12-19 09:08:24,0.04,7.28,0.00,15.43,18.42,21.87,14.31,47.30,1015.70,2057.98,1488.00,1807.43,2072.03,600.05,611.06,57.20,0000 0000 0000 0000 000000
2017-12-19 09:13:25,0.07,7.28,0.00,15.45,18.42,21.89,14.33,47.23,1015.73,2057.98,1487.62,1807.02,2071.65,599.79,610.88,57.25,0000 0000 0000 0000 000000
2017-12-19 09:18:26,0.07,7.28,0.00,15.45,18.42,21.89,14.29,47.24,1015.66,2057.97,1486.99,1806.60,2071.01,599.95,611.00,57.30,0000 0000 0000 0000 000000
2017-12-19 09:23:27,0.07,7.29,0.00,15.44,18.43,21.87,14.33,47.28,1015.66,2057.99,1486.33,1806.06,2070.97,599.97,610.95,57.35,0000 0000 0000 0000 000000
2017-12-19 09:28:29,0.01,7.29,0.00,15.47,18.44,21.86,14.40,47.39,1015.65,2057.99,1485.99,1806.00,2070.80,600.28,611.23,57.40,0000 0000 0000 0000 000000
2017-12-19 09:33:30,0.09,7.29,0.00,15.48,18.44,21.87,14.32,47.26,1015.64,2057.99,1485.68,1805.72,2069.90,600.23,611.20,57.45,0000 0000 0000 0000 000000
2017-12-19 09:38:31,0.22,7.30,0.00,15.49,18.44,21.87,14.33,47.27,1015.64,2057.97,1484.16,1804.45,2068.39,599.87,610.83,57.50,0000 0000 0000 0000 000000
2017-12-19 09:43:33,0.30,7.31,0.00,15.47,18.44,21.88,14.30,47.20,1015.64,2057.96,1482.17,1802.76,2066.47,599.99,610.95,57.55,0000 0000 0000 0000 000000
2017-12-19 09:48:34,0.57,7.34,0.00,15.44,18.44,21.86,14.29,47.31,1015.64,2057.97,1478.75,1799.89,2063.07,600.15,611.17,57.60,0000 0000 0000 0000 000000
2017-12-19 09:53:35,0.55,7.37,0.00,15.48,18.45,21.90,14.27,47.20,1015.63,2057.94,1474.77,1796.57,2059.20,600.04,611.00,57.65,0000 0000 0000 0000 000000
2017-12-19 09:58:37,0.47,7.39,0.00,15.47,18.45,21.88,14.32,47.27,1015.63,2057.96,1471.45,1793.66,2055.75,599.92,610.95,57.70,0000 0000 0000 0000 000000
2017-12-19 10:03:38,0.31,7.41,0.00,15.46,18.46,21.91,14.19,47.33,1015.63,2057.96,1469.19,1791.79,2053.51,599.69,610.72,57.75,0000 0000 0000 0000 000000
2017-12-19 10:08:40,0.22,7.42,0.00,15.47,18.47,21.89,14.35,47.34,1015.60,2057.91,1467.54,1790.38,2051.70,600.24,611.23,57.80,0000 0000 0000 0000 000000
2017-12-19 10:13:40,0.20,7.44,0.00,15.48,18.47,21.92,14.31,47.40,1015.54,2057.73,1465.86,1788.96,2049.98,600.12,611.08,57.85,0000 0000 0000 0000 000000
2017-12-19 10:18:42,0.20,7.45,0.00,15.47,18.47,21.91,14.31,47.35,1015.54,2057.82,1464.60,1787.90,2048.71,599.59,610.51,57.91,0000 0000 0000 0000 000000
2017-12-19 10:23:43,0.18,7.45,0.00,15.48,18.47,21.93,14.32,47.34,1015.47,2057.80,1463.43,1786.84,2047.33,599.89,610.86,57.96,0000 0000 0000 0000 000000
2017-12-19 10:28:45,0.13,7.46,0.00,15.50,18.47,21.90,14.32,47.33,1015.40,2057.62,1462.07,1785.77,2046.43,600.15,610.93,58.01,0000 0000 0000 0000 000000
2017-12-19 10:33:46,0.16,7.47,0.00,15.51,18.47,21.90,14.27,47.27,1015.33,2057.41,1460.85,1784.74,2045.11,600.07,610.79,58.06,0000 0000 0000 0000 000000
2017-12-19 10:38:47,0.13,7.48,0.00,15.52,18.47,21.89,14.25,47.27,1015.22,2057.32,1459.73,1784.00,2044.07,599.90,610.55,58.11,0000 0000 0000 0000 000000
2017-12-19 10:43:48,0.14,7.48,0.00,15.53,18.47,21.91,14.25,47.30,1015.17,2057.42,1459.01,1783.24,2043.47,599.98,610.69,58.16,0000 0000 0000 0000 000000
2017-12-19 10:48:49,0.03,7.49,0.00,15.49,18.47,21.90,14.27,47.36,1015.18,2057.39,1458.37,1782.98,2042.99,600.10,610.79,58.21,0000 0000 0000 0000 000000
2017-12-19 10:53:51,0.11,7.49,0.00,15.52,18.48,21.89,14.28,47.36,1015.19,2057.44,1457.98,1782.35,2042.49,599.93,610.48,58.26,0000 0000 0000 0000 000000
2017-12-19 10:58:52,0.08,7.50,0.00,15.51,18.48,21.90,14.32,47.36,1015.20,2057.55,1457.33,1782.01,2042.01,600.00,610.62,58.31,0000 0000 0000 0000 000000
2017-12-19 11:03:53,0.02,7.50,0.00,15.51,18.49,21.93,14.26,47.55,1015.21,2057.58,1456.86,1781.92,2041.88,599.91,610.49,58.36,0000 0000 0000 0000 000000
2017-12-19 11:08:54,0.15,7.51,0.00,15.52,18.49,21.93,14.26,47.55,1015.18,2057.73,1456.08,1781.22,2041.22,600.16,610.79,58.41,0000 0000 0000 0000 000000
2017-12-19 11:13:56,0.02,7.51,0.00,15.50,18.49,21.94,14.21,47.69,1015.19,2057.86,1455.99,1781.00,2040.98,599.67,610.39,58.46,0000 0000 0000 0000 000000
2017-12-19 11:18:57,0.04,7.51,0.00,15.51,18.49,21.92,14.23,47.58,1015.21,2057.84,1455.76,1780.98,2040.48,599.69,610.34,58.51,0000 0000 0000 0000 000000
2017-12-19 11:23:58,0.06,7.52,0.00,15.50,18.49,21.92,14.31,47.62,1015.21,2057.71,1455.05,1780.42,2040.02,600.03,610.75,58.56,0000 0000 0000 0000 000000
2017-12-19 11:28:59,0.01,7.52,0.00,15.50,18.49,21.91,14.34,47.58,1015.16,2057.51,1454.99,1780.02,2039.91,600.26,610.92,58.61,0000 0000 0000 0000 000000
2017-12-19 11:34:01,0.04,7.52,0.00,15.51,18.50,21.92,14.34,47.47,1015.15,2057.27,1454.63,1780.00,2039.15,600.23,610.88,58.66,0000 0000 0000 0000 000000
2017-12-19 11:39:02,0.00,7.52,0.00,15.50,18.51,21.92,14.36,47.45,1015.15,2057.18,1454.13,1779.97,2038.99,600.36,611.15,58.71,0000 0000 0000 0000 000000
2017-12-19 11:44:03,0.03,7.52,0.00,15.51,18.52,21.95,14.20,47.30,1015.10,2057.16,1454.00,1779.68,2038.91,600.03,610.54,58.76,0000 0000 0000 0000 000000
2017-12-19 11:49:04,0.07,7.52,0.00,15.52,18.52,21.94,14.36,47.34,1015.07,2057.10,1453.81,1779.08,2038.23,600.03,610.52,58.82,0000 0000 0000 0000 000000
2017-12-19 11:54:06,0.05,7.53,0.00,15.50,18.52,21.93,14.38,47.33,1014.98,2057.09,1453.07,1779.00,2038.01,599.94,610.52,58.87,0000 0000 0000 0000 000000
2017-12-19 11:59:07,0.01,7.53,0.00,15.50,18.52,21.94,14.29,47.24,1014.77,2057.06,1452.93,1778.94,2037.94,599.65,610.06,58.92,0000 0000 0000 0000 000000
2017-12-19 12:04:08,0.13,7.53,0.00,15.49,18.52,21.92,14.23,47.20,1014.81,2057.13,1452.20,1778.38,2037.37,599.65,610.19,58.97,0000 0000 0000 0000 000000
2017-12-19 12:09:10,0.01,7.53,0.00,15.50,18.52,21.95,14.25,47.45,1014.79,2057.09,1452.00,1778.01,2037.01,600.04,610.31,59.02,0000 0000 0000 0000 000000
2017-12-19 12:14:11,0.03,7.53,0.00,15.49,18.52,21.93,14.31,47.50,1014.72,2057.15,1451.81,1777.99,2036.90,599.83,610.19,59.07,0000 0000 0000 0000 000000
2017-12-19 12:19:12,0.08,7.54,0.00,15.49,18.52,21.93,14.30,47.37,1014.71,2057.09,1451.08,1777.73,2036.13,600.12,610.55,59.12,0000 0000 0000 0000 000000
2017-12-19 12:24:13,0.05,7.54,0.00,15.51,18.52,21.92,14.36,47.31,1014.70,2057.09,1450.94,1777.07,2036.00,600.23,610.45,59.17,0000 0000 0000 0000 000000
2017-12-19 12:29:15,0.07,7.55,0.00,15.51,18.52,21.95,14.32,47.49,1014.77,2057.19,1450.22,1777.00,2035.82,600.10,610.44,59.22,0000 0000 0000 0000 000000
2017-12-19 12:34:16,0.02,7.55,0.00,15.52,18.52,21.91,14.27,47.39,1014.77,2057.19,1450.02,1776.98,2035.09,599.84,610.19,59.27,0000 0000 0000 0000 000000
2017-12-19 12:39:18,0.06,7.55,0.00,15.52,18.52,21.94,14.33,47.14,1014.69,2057.09,1450.00,1776.48,2034.55,600.14,610.46,59.32,0000 0000 0000 0000 000000
2017-12-19 12:44:19,0.06,7.55,0.00,15.52,18.52,21.95,14.39,47.12,1014.70,2057.04,1449.46,1776.02,2034.02,600.08,610.33,59.37,0000 0000 0000 0000 000000
2017-12-19 12:49:21,0.02,7.55,0.00,15.48,18.52,21.93,14.25,47.22,1014.66,2057.02,1448.91,1775.94,2033.94,599.86,610.31,59.42,0000 0000 0000 0000 000000
2017-12-19 12:54:22,0.14,7.56,0.00,15.49,18.53,21.93,14.32,47.33,1014.66,2057.04,1448.21,1775.27,2033.18,599.95,610.30,59.47,0000 0000 0000 0000 000000